Theta_e
335 335 335 335 335 335 334 334 334 334 334 333 333 333 332 332 331 331 330 330 329 328 325 324 326 325 322 322 322 322 323 323 324 324 324 325 325 326 324 322 321 319 319 319 319 319 319 318 317 317 317 316 316 317 319 321 323 323 324 327 331 335 336 338 340 341 342 343 345 347 348 350 350 350
334 334 334 334 335 335 334 334 334 334 334 333 333 333 333 332 331 330 330 331 330 329 327 325 326 326 325 325 324 324 324 325 326 325 325 325 325 325 325 323 321 320 320 319 319 319 319 318 318 317 317 317 317 316 316 318 320 323 324 324 326 330 333 335 336 338 340 341 342 344 345 347 349 350
333 333 333 334 335 334 335 335 335 335 334 334 335 334 333 332 331 330 329 330 330 329 328 328 327 327 326 326 326 325 325 325 326 325 325 326 325 324 323 322 321 320 320 320 320 320 319 319 318 317 317 317 317 316 316 316 317 319 322 325 325 327 329 332 334 335 337 339 340 342 343 344 346 348
332 332 333 334 334 334 334 334 334 335 335 335 335 335 334 332 331 330 329 330 330 330 330 329 328 327 327 327 326 326 326 326 326 326 326 325 324 322 322 321 320 320 320 320 320 320 319 319 318 317 317 317 317 316 316 316 317 317 319 322 325 326 327 329 332 334 336 338 338 339 341 342 343 346
331 332 333 334 334 333 333 334 334 335 335 335 334 334 333 332 331 331 330 329 330 330 330 330 329 328 328 327 327 327 327 327 327 327 327 325 324 321 319 319 319 319 319 320 320 320 320 318 317 317 317 316 316 316 316 317 317 318 318 319 322 326 327 328 330 332 334 337 338 338 338 340 341 343
331 332 332 333 333 333 333 333 333 334 334 334 334 334 333 332 332 331 331 330 330 330 330 330 330 329 328 328 328 328 328 328 328 327 327 327 326 324 320 319 319 318 319 320 320 320 319 317 317 317 317 316 316 316 316 317 317 318 318 318 320 323 327 329 329 331 333 336 338 339 338 338 339 341
332 333 333 332 333 333 333 333 333 333 333 334 334 334 334 333 332 332 331 330 330 329 329 329 330 329 329 328 328 328 328 328 328 327 327 327 327 324 321 320 319 318 319 320 320 319 318 317 317 317 317 316 316 316 316 317 317 318 319 319 319 321 325 329 330 330 332 335 336 338 338 337 338 339
332 332 331 331 331 332 333 333 334 334 334 334 335 335 335 334 333 333 333 331 330 329 328 328 329 330 329 328 327 328 328 328 327 328 327 327 326 324 322 323 323 322 320 319 319 318 317 317 317 317 317 317 316 316 316 316 317 318 318 319 320 319 322 327 330 331 331 334 335 336 338 338 337 338
329 329 329 329 330 331 332 334 334 335 336 336 335 335 335 334 334 334 333 333 332 330 328 328 328 328 329 328 327 328 328 327 327 327 327 327 326 325 325 326 326 325 323 322 320 318 318 318 318 318 318 317 317 316 316 317 317 317 318 319 320 320 321 324 329 331 331 333 334 335 336 338 339 338
328 328 328 328 328 329 330 332 334 335 336 336 336 335 335 334 334 334 333 333 333 332 330 329 328 328 328 328 327 327 327 326 326 326 326 326 326 325 325 325 326 325 325 325 323 320 319 319 319 319 318 317 317 317 317 317 317 317 318 319 320 321 321 322 326 331 332 332 334 334 335 337 340 340
328 328 327 327 328 328 328 330 331 333 335 336 336 335 335 335 334 334 333 333 333 332 331 330 328 328 328 327 327 326 326 325 325 325 325 325 325 325 325 325 324 325 325 325 325 322 320 319 319 319 318 318 318 319 318 318 318 318 319 320 320 320 321 322 324 329 333 333 333 334 334 335 340 342
328 327 327 327 327 327 326 327 328 330 333 335 336 335 335 335 335 334 333 333 333 332 331 330 329 328 328 327 326 326 325 325 325 324 324 325 325 325 325 324 324 324 324 324 325 324 322 321 321 321 321 320 320 320 320 319 319 319 319 320 321 321 321 322 323 326 331 334 333 333 334 334 339 342
329 328 327 327 327 326 326 326 327 328 329 331 334 335 335 335 335 334 333 333 332 331 330 330 330 328 327 326 326 325 325 325 325 324 324 325 325 325 325 324 324 323 323 323 323 323 323 322 322 322 322 321 321 320 320 320 320 321 321 322 323 323 323 323 323 325 330 334 334 333 333 334 338 343
329 329 328 328 327 327 327 326 327 327 327 328 330 331 330 330 331 332 332 331 331 331 330 330 330 329 326 326 326 325 325 325 324 324 325 325 325 325 325 324 323 323 323 322 323 323 322 322 322 322 322 322 321 321 321 321 321 321 322 322 323 326 327 327 326 326 329 333 335 333 333 333 337 342
330 330 330 329 328 327 328 328 329 329 328 328 327 326 325 324 325 327 329 330 331 330 329 329 330 329 327 326 326 325 325 324 324 324 324 324 324 324 324 324 324 323 322 322 322 322 322 322 322 322 322 322 322 322 321 321 320 320 321 321 322 323 325 327 328 328 329 332 335 335 333 334 337 342
332 331 331 330 329 328 328 329 329 329 329 327 325 324 323 323 323 324 326 329 329 329 328 328 328 328 328 327 326 325 324 324 324 324 324 323 324 324 323 324 324 323 322 322 322 322 322 321 322 322 322 322 322 322 321 321 321 320 320 321 321 321 322 323 324 327 330 333 335 336 335 334 337 342
331 330 330 330 329 329 329 328 328 329 329 327 325 325 325 326 326 326 327 327 328 327 327 327 327 327 328 328 326 324 324 323 323 323 323 323 323 323 323 323 323 323 322 322 322 322 322 321 322 322 322 322 321 321 321 321 321 321 321 321 321 321 321 322 322 325 330 334 335 336 336 335 338 342
330 329 329 329 329 328 328 328 328 328 329 328 327 327 328 328 327 327 327 327 327 327 326 326 326 326 327 326 325 324 323 323 322 322 322 321 321 321 321 321 321 321 321 321 322 322 322 321 322 322 321 321 321 320 321 321 321 321 321 321 321 321 322 322 322 323 329 334 336 336 336 336 338 343
329 329 328 328 327 327 327 328 326 326 328 328 327 327 328 328 327 327 327 327 327 327 326 326 325 324 324 324 322 322 321 320 320 320 319 319 319 319 319 320 320 321 321 321 322 322 321 321 321 321 320 320 320 321 321 321 321 321 321 321 322 322 322 322 323 324 328 333 337 337 337 336 338 342
328 327 326 326 326 326 327 326 324 324 324 325 326 327 327 327 327 326 325 325 325 325 324 323 322 322 322 321 320 319 318 318 317 318 318 318 318 318 319 320 320 321 321 321 321 321 321 320 320 320 320 320 320 321 321 322 322 322 322 322 322 322 322 322 323 325 328 333 337 338 337 336 337 340
327 326 325 325 325 326 328 327 324 323 322 322 324 326 326 326 325 325 325 324 323 322 322 321 320 320 319 319 318 318 317 316 316 317 317 318 318 319 320 320 321 321 321 320 320 320 320 320 320 320 320 320 320 321 322 322 323 323 323 323 323 323 323 322 323 326 330 334 337 338 338 337 336 338
326 325 324 325 325 326 327 325 323 321 320 321 324 325 325 324 325 325 324 324 322 321 321 320 319 319 318 317 317 315 314 313 315 316 317 318 319 319 320 321 321 321 321 320 320 320 320 319 319 319 320 320 321 322 323 324 324 324 324 324 324 324 323 323 323 325 330 335 337 339 339 338 336 337
324 324 325 325 325 325 324 322 321 320 320 321 323 324 324 324 324 324 323 323 322 321 321 320 319 317 316 316 315 315 314 313 315 317 318 318 319 319 320 320 320 320 320 319 319 320 320 319 319 319 320 321 322 323 325 325 325 325 325 325 326 325 324 324 324 324 329 335 338 339 339 339 338 339
327 327 326 325 325 324 322 320 320 319 320 320 321 322 323 324 324 323 322 321 320 319 319 318 317 316 316 315 316 317 316 316 317 318 318 318 318 318 318 319 319 319 320 318 318 319 319 318 318 318 319 321 323 324 325 326 327 327 327 327 327 328 326 325 325 326 329 334 338 340 340 340 340 338
328 328 327 326 323 322 320 319 319 319 320 320 320 321 322 322 322 321 319 319 318 317 317 317 317 317 316 316 316 316 316 316 316 316 316 316 316 317 317 318 318 318 319 318 317 318 318 318 318 319 320 322 324 325 325 326 327 328 328 328 329 330 330 328 327 329 332 335 338 340 340 341 341 339
327 326 325 324 322 320 319 319 319 320 321 321 321 321 321 321 320 318 317 316 316 316 316 316 316 316 316 316 315 315 315 314 314 314 314 314 315 316 317 317 318 318 319 318 318 317 318 318 319 320 321 324 325 326 326 327 328 329 329 330 330 331 334 333 331 332 335 337 338 340 341 341 341 341
325 324 323 322 321 320 319 319 320 321 322 322 322 321 320 319 317 316 314 314 313 314 315 315 315 315 315 315 315 314 314 313 311 311 312 312 314 315 316 317 318 318 319 318 318 317 318 318 319 320 323 325 326 327 327 327 328 330 331 332 331 332 336 337 336 336 338 338 338 340 340 340 341 342
323 322 322 320 319 319 319 320 321 321 321 320 320 318 317 316 314 313 313 312 312 313 314 315 315 314 314 314 314 313 312 310 309 310 310 311 313 315 316 317 318 318 318 317 316 317 317 319 320 321 324 326 326 327 327 327 328 331 333 333 332 334 337 339 339 338 339 339 338 338 338 337 339 340
322 322 320 319 318 318 319 320 320 319 318 316 316 315 313 313 312 311 311 311 312 313 313 313 313 313 313 313 312 310 309 309 309 311 311 311 313 315 316 317 318 318 317 316 317 317 318 319 321 322 324 327 327 327 328 327 328 332 334 334 334 336 337 339 340 340 340 340 338 338 339 339 340 340
321 320 318 318 318 318 318 318 318 317 315 313 313 312 311 310 309 308 309 310 311 312 312 311 311 311 310 310 309 308 309 310 311 312 312 312 313 314 315 316 317 318 317 316 317 318 318 319 321 322 324 327 328 328 328 329 329 332 332 332 335 338 339 339 341 341 341 340 339 338 339 340 340 341
319 318 317 317 317 316 315 315 315 313 312 311 311 309 308 307 305 304 305 306 307 308 309 309 309 309 309 309 309 309 310 311 311 311 311 312 312 314 314 315 317 318 318 317 318 319 319 320 321 322 324 327 328 328 328 329 330 331 331 332 335 339 340 341 341 342 341 341 339 338 338 337 337 338
318 317 317 316 316 315 314 314 313 312 311 310 309 308 306 304 302 301 302 302 304 307 307 308 308 308 309 309 309 309 309 310 310 311 311 311 312 313 314 315 317 319 319 319 319 319 319 320 321 322 324 327 328 327 328 330 331 332 332 332 334 339 341 341 342 342 341 341 340 339 338 337 336 336
317 318 318 317 316 316 315 315 314 313 312 310 308 307 305 303 303 304 304 305 307 307 307 308 308 308 308 308 308 308 308 309 310 310 310 311 311 312 313 314 317 318 319 319 319 319 319 320 321 321 324 327 327 326 327 330 329 330 331 332 335 340 341 340 342 344 342 341 341 339 338 337 336 336
317 318 318 317 317 316 315 315 315 314 312 311 310 307 305 305 304 304 304 305 306 305 306 307 307 307 307 307 307 308 308 308 309 309 310 310 311 311 313 314 316 318 318 319 319 319 319 320 321 321 323 325 325 322 323 324 323 323 327 331 337 341 338 336 340 344 342 341 341 339 338 338 337 337
317 318 317 317 316 315 315 314 314 312 310 310 309 307 306 306 304 303 303 304 304 304 306 306 306 306 306 307 307 307 307 308 308 309 310 311 311 312 313 314 316 317 318 318 318 318 318 319 321 322 323 325 326 324 322 320 319 320 322 326 333 340 339 336 339 343 343 342 342 341 340 338 337 337
317 316 316 316 315 314 314 313 311 310 309 308 307 306 305 303 302 302 301 301 302 304 306 305 305 305 306 306 306 306 307 307 308 309 310 310 311 312 313 314 316 317 317 318 318 318 318 320 321 322 322 324 327 327 324 321 319 319 319 320 326 335 339 339 340 341 342 343 342 341 341 339 338 337
316 315 315 314 314 313 312 311 309 308 307 306 305 305 303 301 300 300 300 300 303 305 304 303 304 305 305 305 305 305 306 307 307 308 309 309 310 311 312 314 315 315 316 317 317 318 319 319 320 321 322 322 323 325 324 322 320 320 319 319 322 328 333 336 338 339 341 342 343 342 342 342 340 338
315 314 313 313 312 312 311 309 308 306 305 304 304 303 301 299 300 301 302 303 304 304 303 303 304 304 304 304 304 304 305 306 307 307 308 308 309 310 311 312 313 314 315 316 317 318 318 318 319 321 321 322 322 322 322 322 321 321 320 319 321 325 329 333 337 340 340 341 343 343 343 344 343 341
314 313 313 312 311 310 309 307 306 305 304 303 302 300 299 299 300 302 303 303 303 303 302 303 303 303 303 304 303 303 304 305 306 307 307 307 308 309 309 310 311 312 314 315 317 317 317 318 318 319 320 321 322 321 321 321 321 321 320 319 320 324 327 330 335 340 341 341 343 343 342 342 342 342
312 312 311 310 309 308 307 305 304 304 303 301 298 297 298 299 301 302 303 303 302 302 302 302 302 303 303 303 303 303 303 304 305 306 306 307 308 308 308 308 310 311 313 314 315 317 316 316 317 318 319 320 321 320 320 321 321 321 321 320 319 321 325 327 331 336 340 341 342 343 342 342 341 340
311 310 309 308 307 306 305 304 303 302 300 298 296 296 298 300 301 301 301 301 301 301 301 302 302 302 302 302 302 302 303 304 304 305 305 306 307 307 307 308 309 311 311 312 313 315 315 316 317 318 318 319 319 320 320 321 321 321 321 321 320 320 322 326 328 331 335 338 340 341 341 341 341 341
310 309 308 307 306 305 304 303 301 300 298 296 296 297 299 301 301 300 300 301 301 302 301 301 301 301 301 302 302 302 303 303 304 304 305 306 307 307 308 308 308 309 310 311 312 314 315 316 317 318 318 318 319 320 319 319 320 320 320 320 320 320 320 322 324 326 330 334 337 338 339 340 341 341
309 308 307 306 304 303 302 301 300 298 296 295 295 297 299 301 301 300 301 301 302 301 301 300 300 301 301 301 301 302 303 302 303 303 304 305 306 307 308 308 308 308 309 310 312 314 315 316 316 317 317 316 317 319 319 318 318 318 318 319 319 320 320 321 322 324 326 328 330 332 334 336 338 340
308 307 306 305 304 302 301 300 299 298 296 295 295 297 299 300 301 301 300 301 301 300 300 300 300 300 300 301 301 302 302 302 302 303 304 305 305 307 307 307 308 308 309 310 311 313 315 315 315 316 316 315 315 317 318 318 316 316 316 317 318 318 319 320 320 321 323 323 325 327 329 332 333 335
307 307 306 304 303 302 301 299 298 297 295 294 295 297 298 299 299 300 300 300 300 300 300 299 300 300 300 300 301 302 302 302 303 303 303 304 305 306 307 307 308 308 308 309 310 312 313 314 315 315 315 314 314 315 316 317 316 314 315 316 317 317 318 319 319 320 320 320 321 323 326 329 330 331
Wind_Speed
11 10 11 11 11 11 12 12 12 12 13 12 11 11 11 10 7 7 7 7 8 7 8 10 9 10 12 15 19 22 22 22 22 23 24 25 25 25 23 23 22 21 21 21 21 22 22 23 22 23 24 25 24 23 23 24 25 27 29 31 32 32 31 31 31 32 32 32 32 32 32 33 34 35
13 12 12 12 12 13 13 13 13 14 15 14 14 14 13 12 10 8 8 9 10 9 9 11 11 11 14 16 18 23 25 23 23 24 26 27 27 26 25 24 23 22 22 22 23 23 24 24 25 25 26 28 28 27 25 25 25 26 28 30 32 33 33 32 32 33 34 33 33 33 33 34 34 35
14 14 13 13 13 13 14 14 14 15 16 16 16 15 16 16 14 13 11 10 11 11 11 13 13 14 18 20 20 23 26 27 26 26 26 27 27 27 26 24 23 23 23 23 23 24 24 25 26 27 29 30 30 30 28 27 26 26 27 29 31 33 35 35 34 33 34 35 35 35 35 35 35 35
15 14 14 14 14 14 14 14 15 15 16 17 17 17 18 18 17 15 13 11 14 17 17 16 16 16 18 22 24 24 26 26 26 26 27 28 28 27 26 25 24 24 24 24 24 24 25 26 27 29 31 32 32 32 31 31 29 28 28 29 31 32 34 36 36 35 34 35 36 37 36 36 36 36
16 16 15 15 15 15 14 14 14 14 15 16 18 18 18 19 18 16 16 15 16 20 21 18 18 18 17 21 25 24 22 21 21 24 27 28 27 26 25 25 25 26 26 26 26 26 26 27 28 30 32 33 33 33 33 33 32 31 30 30 31 32 34 36 37 37 36 35 36 38 38 37 37 37
18 17 17 17 16 15 15 15 15 14 15 15 17 18 17 18 19 18 18 17 16 19 21 20 20 19 18 21 24 22 20 19 19 21 23 22 21 22 24 24 25 26 27 27 28 28 27 28 29 30 32 33 34 34 34 34 34 33 32 32 32 33 34 36 37 38 38 36 36 37 38 38 38 38
18 18 18 17 15 15 15 15 15 15 16 16 16 17 17 17 19 19 18 18 17 19 21 20 21 20 18 19 21 20 20 20 19 19 19 18 19 21 24 26 27 27 28 29 29 28 29 29 30 30 32 33 34 34 34 35 35 35 34 33 33 34 35 36 37 39 39 38 37 37 38 39 39 38
15 16 16 15 14 14 14 15 15 15 16 16 16 16 16 16 18 18 17 17 17 19 20 19 19 20 18 18 19 20 20 20 19 19 19 19 20 23 25 24 26 28 29 30 30 30 31 31 31 31 31 32 34 36 37 37 37 38 37 35 34 35 36 37 38 39 40 40 38 37 38 39 39 39
14 14 15 15 14 14 14 15 15 15 15 15 15 16 15 15 16 16 16 16 16 17 18 18 19 19 19 19 19 18 18 19 19 19 19 18 19 22 22 20 22 25 27 28 29 31 33 33 32 31 31 33 36 37 39 40 40 40 40 38 36 35 36 38 38 39 41 42 41 39 38 39 39 40
14 14 14 14 14 14 15 15 15 15 15 15 15 16 15 15 15 15 16 15 15 15 16 17 18 19 20 20 19 17 17 19 20 20 20 19 18 19 20 21 21 23 24 25 27 30 31 32 32 32 33 34 37 39 41 42 42 42 42 41 38 36 37 38 40 40 41 42 43 41 39 39 39 40
14 14 14 14 15 15 16 17 16 16 16 15 15 16 15 15 15 15 15 15 15 15 15 15 16 17 18 19 18 18 18 20 20 21 21 21 20 19 21 23 24 25 25 26 29 31 32 32 33 35 36 36 36 38 40 42 42 42 43 42 40 37 37 38 41 41 41 42 44 43 41 40 40 40
16 16 16 16 16 16 17 17 17 17 16 15 14 15 15 14 15 15 15 15 15 15 16 15 15 16 18 19 18 18 19 20 20 20 21 22 23 23 24 26 26 27 28 29 29 30 30 30 31 32 33 35 37 39 41 43 44 44 43 43 41 39 37 38 40 42 42 43 44 45 43 41 40 41
17 18 18 18 18 18 18 18 18 18 18 17 15 14 14 14 14 14 15 15 16 17 18 17 16 17 19 20 19 19 19 20 21 22 23 23 24 25 26 26 26 26 28 30 31 30 29 30 32 32 32 36 41 41 40 41 41 41 40 39 38 37 35 36 39 42 43 43 44 46 45 42 41 41
19 19 20 20 20 20 19 20 20 20 20 19 18 16 15 15 15 15 15 15 17 17 18 18 17 18 20 20 21 21 21 22 23 23 23 24 25 26 26 25 25 25 26 30 33 33 30 30 35 37 37 41 43 40 37 37 38 39 38 37 37 36 34 34 36 40 43 44 44 46 46 44 42 41
20 20 20 21 21 20 20 20 20 20 20 19 18 16 17 18 19 19 17 17 18 17 18 19 18 18 20 20 22 23 24 23 23 23 24 24 25 26 23 22 23 24 26 29 33 36 34 32 37 41 42 42 41 39 38 39 41 42 41 40 41 40 39 38 37 38 41 44 44 45 46 45 42 42
21 21 20 20 20 20 21 20 18 18 18 18 17 17 19 22 23 22 20 19 19 18 17 18 19 19 20 19 20 24 24 24 24 25 25 24 25 26 25 24 25 26 26 29 33 39 37 32 34 40 41 39 38 39 40 40 41 42 42 42 42 43 43 42 41 38 38 42 44 45 46 45 43 42
21 20 18 17 18 19 21 19 15 14 14 15 16 18 20 21 20 19 18 18 20 19 17 17 18 20 19 18 20 23 24 25 26 26 25 25 26 27 27 28 30 29 28 30 34 38 35 30 31 37 38 37 39 41 42 42 42 42 43 43 43 43 43 42 42 39 37 39 43 45 45 45 44 42
19 17 16 15 17 17 16 14 11 10 11 13 14 16 17 17 16 15 15 15 15 15 14 15 17 18 18 19 22 24 24 25 26 25 25 25 26 27 28 29 32 30 28 30 32 32 30 29 32 37 37 39 43 46 45 45 45 44 43 43 43 42 42 41 41 40 38 38 41 44 45 45 44 43
15 15 15 15 14 13 12 10 10 10 11 11 13 15 15 16 15 13 12 12 12 11 11 13 15 17 19 21 24 25 26 26 23 21 21 22 23 26 27 28 29 28 27 28 29 27 28 32 35 38 41 42 44 45 43 43 45 44 43 43 43 41 41 41 39 39 38 38 39 42 44 45 44 43
15 16 14 11 10 10 10 11 11 12 12 12 13 14 14 15 14 13 13 14 13 11 11 13 16 19 21 24 25 26 27 25 19 16 18 20 21 23 25 26 27 27 27 28 27 27 31 35 35 38 43 44 43 43 42 40 40 41 41 41 41 41 41 41 39 38 38 38 38 40 43 45 44 43
15 14 11 8 8 9 9 11 12 12 13 12 12 12 13 14 15 15 14 14 14 13 14 17 20 21 23 24 25 25 26 24 19 16 19 21 21 21 20 20 25 28 28 28 26 26 33 37 35 37 43 44 41 39 40 38 36 36 38 39 39 39 39 39 39 38 37 38 38 39 42 44 44 43
14 12 10 8 7 7 8 11 13 13 13 12 10 11 13 14 15 15 13 12 13 15 17 19 22 23 23 24 25 26 26 25 21 18 20 22 23 24 22 21 25 28 29 31 27 25 31 36 34 34 36 38 38 36 34 35 33 32 32 34 36 37 37 37 38 38 37 37 38 38 40 42 43 42
13 12 10 8 7 7 9 12 13 13 13 12 9 9 11 14 14 14 12 11 12 14 16 17 20 22 23 23 25 25 24 24 21 18 20 22 24 26 27 26 24 19 22 29 26 23 30 36 36 33 24 19 26 30 27 28 30 29 28 27 30 33 34 35 35 37 38 37 37 38 39 41 42 42
10 9 7 6 7 8 9 12 13 13 13 12 10 8 9 11 13 11 10 10 13 15 17 17 18 20 22 21 21 20 20 21 19 17 18 20 22 25 29 32 27 19 22 31 31 28 33 36 37 38 28 15 16 23 22 22 24 25 25 25 24 26 30 33 34 36 37 36 36 37 38 40 42 41
8 6 5 5 8 9 10 11 12 13 13 13 12 10 9 11 13 12 10 11 13 15 16 15 15 16 18 17 17 18 18 19 19 18 19 20 20 23 27 30 28 25 29 37 38 35 37 37 35 37 33 23 20 23 23 21 22 22 23 24 24 22 25 30 35 36 36 36 36 37 37 39 41 41
6 6 6 7 9 10 11 11 12 12 12 10 10 9 9 10 12 12 11 12 13 13 12 12 13 14 15 15 15 17 19 20 21 22 23 22 21 22 24 24 26 29 32 35 37 36 38 39 36 33 29 22 20 22 21 19 20 21 21 22 24 23 23 27 30 32 33 35 37 37 36 37 39 41
6 7 7 8 10 11 11 10 9 8 7 6 6 6 8 10 11 12 12 12 12 12 11 11 12 13 13 14 16 17 19 22 26 26 26 26 26 24 24 23 25 29 31 31 34 36 38 40 40 36 31 23 17 15 15 16 18 17 17 20 23 25 24 24 26 28 28 32 37 37 36 37 37 38
7 7 8 10 11 10 9 8 6 5 5 5 5 7 8 10 11 10 11 10 10 10 10 10 11 13 13 14 16 19 22 25 29 28 27 28 28 25 25 24 23 26 31 35 37 38 38 40 41 39 34 25 16 11 12 16 18 15 14 17 22 26 26 24 25 27 25 26 31 35 36 37 36 36
8 9 10 10 9 8 6 5 4 4 5 5 6 8 9 8 8 8 9 9 9 9 9 10 12 13 14 15 18 22 25 27 27 26 25 26 26 24 23 23 23 26 34 39 37 36 37 38 38 38 33 24 18 16 16 17 18 16 14 15 19 24 27 25 23 24 25 23 24 31 38 40 39 38
9 9 10 8 7 6 5 4 4 5 6 7 7 8 8 7 7 8 8 7 8 8 10 11 13 14 15 18 20 23 24 24 23 22 22 23 24 23 23 23 25 29 34 38 36 35 37 37 35 34 30 21 18 20 19 15 17 20 19 18 19 19 21 23 21 21 25 23 21 27 34 37 38 40
7 7 8 6 5 5 5 5 6 6 6 6 5 5 6 7 8 8 7 8 9 10 11 12 14 15 16 18 20 21 20 20 21 20 20 21 23 23 22 23 25 28 32 35 35 34 36 36 34 34 29 21 18 19 18 15 15 20 23 22 21 16 16 20 20 20 23 22 19 22 24 25 30 36
5 4 4 4 4 5 5 5 5 5 4 4 4 4 6 7 8 8 8 9 9 10 11 12 13 15 15 16 17 19 19 20 20 19 19 20 21 22 21 21 23 25 28 32 33 34 37 37 36 35 27 17 14 15 16 15 16 19 21 22 23 18 17 21 20 19 21 21 18 19 19 20 26 32
4 4 4 5 5 6 6 6 5 4 2 2 3 4 5 6 6 6 7 7 8 9 11 12 12 13 14 15 16 18 19 20 19 18 18 18 20 21 20 20 22 24 26 30 33 35 40 40 38 34 23 11 10 10 9 10 13 17 19 21 22 17 16 20 20 18 20 20 18 17 18 19 22 28
5 5 6 6 6 6 5 5 4 3 3 3 3 4 5 4 4 5 6 6 8 10 11 11 12 13 14 15 16 17 19 20 20 19 18 17 18 20 20 20 22 23 24 28 30 34 40 43 39 34 22 8 4 2 8 10 14 19 20 18 18 15 14 17 18 18 19 19 18 17 17 17 18 22
5 5 5 5 4 4 4 3 3 3 3 4 4 4 4 4 4 5 6 7 9 10 10 10 12 12 13 14 15 16 18 19 20 20 18 16 17 19 19 20 21 22 23 26 27 30 36 41 37 30 21 11 3 4 10 16 21 23 20 17 13 12 14 16 17 18 19 19 18 18 16 15 15 17
4 4 4 4 3 2 2 2 2 3 3 3 4 5 5 5 5 5 7 9 10 9 9 11 12 12 13 14 15 16 17 18 18 19 18 17 17 18 20 20 21 21 22 23 24 27 31 35 32 23 14 10 6 3 6 15 23 25 21 17 14 9 10 15 17 17 18 19 19 18 16 14 14 16
4 3 3 3 2 1 1 1 2 2 3 3 4 5 5 5 6 6 8 10 9 8 9 11 11 12 13 14 15 16 17 17 17 17 18 17 17 17 18 20 21 21 22 21 21 24 28 31 31 23 13 8 9 8 8 13 20 26 26 21 16 12 8 12 17 17 17 19 20 19 16 15 15 17
3 2 2 2 1 1 2 2 2 2 3 4 4 4 4 5 6 6 7 8 7 8 10 10 10 12 12 13 14 16 17 17 17 17 17 17 17 16 16 18 20 21 21 20 19 22 27 30 30 27 18 10 7 8 9 12 16 22 28 27 19 12 10 11 16 19 17 15 17 18 17 16 15 16
2 2 2 2 2 2 2 2 2 2 3 4 4 4 4 5 5 6 6 6 7 9 10 9 10 12 12 13 14 16 16 17 17 17 17 17 17 16 16 17 19 20 21 21 19 20 26 30 30 30 25 17 12 13 12 11 12 17 23 28 25 16 10 10 9 16 17 14 14 15 15 13 12 12
2 2 2 2 2 2 2 2 2 3 3 4 4 4 4 4 4 5 5 6 8 9 9 9 11 12 12 13 14 15 16 16 16 17 18 18 17 17 17 17 18 19 19 19 18 19 24 29 29 29 28 23 20 18 14 9 11 17 21 25 28 23 15 11 8 3 12 15 14 13 12 13 12 11
3 3 3 3 3 3 3 2 2 3 3 3 3 4 4 3 3 4 6 7 8 9 9 9 10 11 12 13 14 15 16 16 16 17 18 18 17 17 17 16 16 16 17 17 18 19 23 27 27 26 26 25 23 20 15 9 10 16 20 22 25 26 22 15 11 7 4 13 15 13 11 12 13 13
3 3 4 4 3 3 3 2 2 3 3 3 3 3 3 3 3 5 6 7 7 8 9 9 10 10 11 12 13 14 15 15 16 17 18 18 17 17 17 15 14 15 16 17 17 17 20 25 26 25 27 30 26 17 11 8 9 14 19 22 24 25 26 24 18 12 7 8 11 10 9 8 8 8
5 5 5 5 4 3 2 2 2 3 3 3 3 3 3 3 3 4 5 5 6 8 9 9 9 10 11 12 13 13 14 15 16 17 17 17 17 16 16 16 15 15 16 17 16 15 17 23 24 21 24 29 26 17 12 13 16 19 21 22 24 24 25 26 25 22 18 14 10 7 6 5 4 6
6 6 5 5 4 3 3 2 2 3 3 3 3 3 3 2 3 3 4 5 7 8 9 9 10 9 10 12 12 12 13 14 16 17 17 17 17 16 16 16 16 15 16 17 17 15 16 20 22 21 21 24 24 20 16 15 20 25 25 24 24 25 24 24 26 28 28 27 22 12 6 5 5 7
6 6 6 5 5 4 3 3 3 4 4 4 3 3 3 2 3 3 4 5 6 8 9 9 10 9 10 11 12 12 13 15 15 15 16 17 17 17 16 16 16 15 15 16 17 16 16 17 19 20 21 22 23 21 19 17 19 25 28 27 26 25 24 24 24 25 28 32 30 22 14 8 6 6
Wind_Direction
261 263 265 267 270 270 268 264 262 263 264 264 264 264 269 277 287 297 295 294 291 280 278 282 275 271 280 290 301 310 312 313 317 318 316 316 318 317 315 311 310 312 313 314 315 317 320 323 326 329 329 328 323 314 303 294 285 277 270 264 259 256 255 255 254 253 253 252 250 249 249 250 249 248
264 267 269 272 273 273 272 267 263 264 265 264 264 264 265 262 259 272 287 291 291 283 274 279 280 281 288 291 295 303 308 310 314 314 313 313 313 312 311 307 305 307 310 311 311 311 313 316 319 322 324 324 323 318 311 302 292 284 276 269 263 259 256 255 254 254 252 251 250 248 247 248 248 247
267 269 270 271 272 274 274 271 268 268 268 267 265 265 265 259 251 252 267 282 287 282 278 281 281 282 290 295 294 296 303 307 309 310 310 310 310 310 308 306 304 304 306 308 308 308 309 312 315 319 320 320 319 317 314 307 299 291 282 274 268 262 257 254 253 253 252 251 250 248 246 246 246 246
268 268 267 268 271 275 275 273 272 271 271 271 269 265 263 260 253 244 248 264 278 282 285 285 284 283 287 295 297 296 298 303 305 308 309 309 309 309 307 306 305 304 306 307 307 306 307 309 312 316 318 318 316 315 313 309 303 296 288 279 272 265 259 254 252 251 251 251 249 247 246 244 245 245
271 271 270 270 275 278 277 276 275 272 271 272 270 267 262 261 257 246 244 255 271 282 287 287 289 289 285 290 296 296 293 294 297 300 303 304 305 306 306 305 304 304 305 306 306 306 306 307 310 313 315 317 315 313 310 308 304 299 292 283 275 268 261 255 251 249 249 249 248 246 245 243 243 243
274 275 275 277 278 278 278 278 278 276 272 270 268 267 263 262 262 255 248 253 265 278 285 289 291 292 288 290 295 294 288 288 291 293 295 296 297 300 303 303 303 303 304 304 305 305 304 305 308 310 312 313 313 312 309 306 304 300 294 286 278 270 263 257 252 248 246 246 246 245 243 242 241 241
275 276 278 280 279 277 278 279 279 279 276 272 267 265 263 260 263 263 255 253 261 273 282 288 291 293 293 290 293 292 288 287 289 287 287 288 288 295 300 301 301 302 303 304 304 303 303 304 304 306 307 309 310 310 309 305 303 300 295 288 280 272 265 259 253 248 245 243 243 243 242 240 239 239
272 273 276 278 278 278 280 281 281 280 279 275 268 265 262 258 262 266 260 253 258 271 280 285 288 291 292 290 291 292 291 290 289 286 284 285 287 294 298 296 295 298 302 303 302 301 303 303 302 301 303 305 306 307 307 305 302 299 295 289 281 273 266 259 254 249 245 242 240 240 240 239 238 238
271 271 274 277 281 282 282 282 280 277 276 275 270 265 261 257 259 262 260 255 254 264 274 281 286 288 288 290 292 290 290 294 295 292 289 288 290 295 298 295 292 295 297 299 300 301 302 302 300 298 298 300 302 303 304 303 300 297 294 289 281 274 266 260 254 249 245 241 239 238 238 238 237 236
272 272 272 275 279 281 281 279 277 276 276 274 271 267 262 261 260 259 259 258 256 260 268 276 284 287 287 292 295 294 295 298 299 299 298 297 295 297 300 300 297 294 290 288 290 294 296 296 295 294 293 294 297 299 299 298 297 295 292 288 281 273 266 260 254 248 244 241 238 236 236 236 236 235
270 269 269 273 277 280 281 280 278 278 276 274 274 271 267 264 262 262 262 262 261 265 268 273 279 283 286 290 294 297 300 298 297 299 301 302 301 298 299 300 299 296 291 286 286 289 293 294 294 294 294 294 295 296 296 295 293 291 289 286 280 273 266 259 253 248 243 240 238 236 234 235 235 234
267 268 271 275 278 280 282 282 282 280 276 275 275 275 274 271 268 269 271 270 269 270 272 275 278 280 284 288 291 297 301 300 301 302 301 301 300 298 298 298 297 297 295 291 288 290 294 295 294 292 292 293 295 294 293 292 289 287 285 282 279 273 265 258 253 247 242 238 236 235 233 233 234 234
270 271 273 275 278 280 282 283 283 281 280 278 275 273 275 276 276 276 276 274 274 274 276 277 276 278 284 288 293 298 301 300 301 302 299 298 298 298 296 295 294 294 295 292 288 288 291 294 294 290 287 290 294 291 288 286 284 282 280 278 276 273 265 257 252 247 242 237 234 233 232 231 232 233
274 275 276 278 279 280 281 283 284 285 285 281 276 272 273 275 276 276 275 275 272 273 278 280 278 279 284 288 293 298 300 299 299 300 299 299 299 300 298 294 293 293 293 292 289 287 287 291 294 291 285 286 288 284 280 278 277 276 273 271 269 267 264 259 253 248 242 236 233 232 230 229 230 231
276 277 278 278 279 280 282 284 286 289 290 285 279 277 278 282 282 276 272 271 271 270 275 280 280 279 283 287 291 297 300 301 302 302 302 301 300 299 297 295 295 295 292 290 288 287 288 290 290 286 281 281 281 278 277 278 276 273 270 267 264 261 259 258 256 251 244 237 232 230 229 228 228 229
278 277 276 276 279 281 283 286 289 292 292 289 284 284 287 289 288 283 274 268 268 271 276 281 281 281 286 290 291 296 302 304 305 304 302 300 297 295 294 292 292 293 291 289 287 286 287 288 282 278 277 278 279 278 280 280 276 273 270 267 264 261 258 256 255 252 247 239 233 229 228 226 225 227
278 276 276 275 277 281 285 291 295 292 290 290 289 291 292 291 291 292 289 277 271 272 274 276 277 279 285 288 290 297 303 304 304 303 300 298 295 292 291 288 288 289 289 287 284 283 286 285 279 277 279 282 284 283 282 279 276 273 270 266 264 261 259 257 253 250 247 242 234 229 226 225 223 224
275 273 271 271 276 282 287 294 298 290 286 289 291 292 291 290 290 294 296 291 282 278 272 267 273 279 282 287 293 298 301 299 299 298 296 294 291 289 287 285 286 287 286 282 278 279 286 289 284 282 284 288 288 285 281 278 274 270 267 265 262 260 259 256 252 247 244 242 236 229 225 223 221 222
268 266 269 273 278 285 290 295 295 289 287 289 289 287 287 289 292 292 290 284 279 278 272 267 276 285 287 291 296 298 297 295 292 292 290 287 287 286 285 286 285 286 287 282 275 276 286 289 287 286 288 291 290 286 283 279 274 268 263 261 259 257 256 254 250 245 241 239 235 229 225 222 220 220
263 266 271 276 282 289 294 294 291 288 289 288 285 284 287 293 297 297 294 286 278 278 280 280 286 291 294 298 301 303 303 299 295 293 290 287 286 285 285 287 287 289 294 290 280 280 287 288 286 288 291 292 290 287 284 279 272 265 260 257 256 255 253 251 247 242 240 238 234 229 224 221 219 218
265 270 275 279 286 291 288 285 287 291 293 291 285 286 292 296 298 298 297 295 293 296 302 305 306 307 308 310 311 312 312 309 305 297 288 288 289 286 285 287 289 291 294 291 285 283 286 287 287 288 292 292 288 283 281 276 268 262 258 254 253 252 250 247 243 239 237 237 233 228 223 220 218 217
269 273 277 280 282 280 276 279 288 294 295 294 290 290 294 294 295 296 295 294 298 304 310 316 318 319 319 318 317 317 316 316 313 296 284 288 290 286 285 287 290 292 290 288 287 282 282 287 289 289 292 291 285 280 277 273 265 258 255 252 250 249 248 244 239 234 234 234 231 227 223 219 217 217
266 270 274 281 282 278 281 287 294 300 301 300 294 288 290 289 290 294 294 292 299 306 311 315 318 320 321 320 317 316 315 316 313 294 285 289 288 285 285 287 291 293 287 288 291 284 284 291 292 289 290 288 286 284 278 272 266 257 251 247 244 244 244 240 235 231 230 231 229 226 222 218 216 217
256 261 266 281 289 291 293 296 301 303 302 301 295 282 280 281 281 287 290 292 303 312 314 316 318 320 321 319 314 309 307 309 305 292 287 289 287 286 285 284 287 284 282 293 298 291 289 293 291 289 287 277 281 286 280 274 268 256 246 241 237 238 238 235 231 228 227 227 226 223 220 217 216 214
245 250 256 276 292 300 303 301 301 300 298 298 292 279 268 266 271 283 293 299 309 316 317 319 318 317 317 314 309 306 304 305 304 299 295 292 289 287 283 282 283 280 284 298 304 297 292 293 290 289 287 278 271 275 274 272 269 260 250 241 233 228 226 225 225 226 225 225 224 222 220 218 216 212
242 262 276 288 297 305 308 302 299 299 298 296 287 278 274 273 278 290 301 309 316 318 317 317 315 312 310 306 305 305 305 307 308 307 304 298 294 289 283 278 278 279 284 297 304 299 294 293 291 288 285 279 272 269 269 269 267 263 255 241 231 222 214 212 215 218 220 221 221 220 219 218 216 212
258 281 293 300 303 308 309 305 304 305 302 296 286 281 280 282 288 300 310 317 321 319 315 312 307 306 305 302 302 304 305 308 311 310 309 306 301 295 290 284 281 281 286 295 303 304 299 296 296 293 285 277 273 268 267 268 267 264 256 243 229 217 209 205 203 205 209 213 215 216 216 216 215 213
282 292 299 303 306 309 308 305 306 305 298 290 280 278 282 289 298 311 319 324 324 316 309 305 301 300 302 301 301 302 305 309 311 310 311 310 305 299 296 292 287 288 298 307 311 311 306 300 301 304 297 284 270 261 264 268 268 264 259 251 233 213 204 201 196 194 196 201 206 209 210 211 212 212
291 295 299 302 304 303 300 299 297 287 282 282 279 283 292 299 310 322 325 324 320 310 303 301 299 300 302 301 301 304 307 310 310 309 311 311 307 303 301 298 293 297 312 320 318 314 312 307 306 312 309 291 267 258 264 273 274 268 263 254 238 217 204 197 193 190 188 189 194 201 205 206 206 207
295 296 296 296 292 284 276 267 260 262 273 285 291 298 309 317 324 329 328 321 312 303 299 299 298 300 302 303 305 308 308 306 305 307 310 310 309 308 308 305 301 305 319 327 324 319 318 316 316 320 315 294 268 261 264 273 279 279 276 260 240 221 203 196 193 187 184 185 188 195 202 204 204 204
292 290 289 285 272 264 260 254 254 259 273 288 300 313 324 328 328 326 319 312 305 298 296 297 297 300 303 304 307 308 305 303 305 308 311 310 310 311 311 308 303 306 317 325 324 324 325 324 327 331 322 296 271 266 270 277 281 284 286 271 246 221 191 189 191 185 183 184 185 187 191 196 200 202
273 262 270 265 246 242 243 243 245 248 262 291 316 328 331 329 327 321 316 312 305 297 297 298 298 302 305 306 308 309 307 307 309 311 312 313 311 312 311 307 305 308 316 321 323 328 334 334 337 340 332 302 274 275 279 283 282 285 288 273 248 221 189 185 189 186 182 180 177 180 183 186 194 199
239 213 230 237 231 231 235 241 246 251 275 322 332 332 332 330 324 318 313 307 302 301 302 302 302 306 310 311 313 313 310 310 312 312 313 315 314 313 309 306 305 308 316 322 325 331 339 342 343 345 341 305 270 288 297 293 298 303 296 271 245 220 192 188 187 180 178 176 169 172 181 186 194 198
205 210 226 232 233 240 250 263 280 305 332 335 327 323 323 320 316 312 307 305 307 309 308 306 308 312 315 315 315 315 313 313 315 314 312 312 315 316 311 308 309 312 317 323 326 331 339 344 346 349 348 318 237 51 35 15 353 341 323 286 249 219 198 196 191 179 176 178 173 170 176 183 191 198
206 224 234 237 241 254 271 294 322 336 332 325 322 318 311 308 313 314 311 312 315 314 312 313 316 318 317 316 315 315 314 314 315 316 314 313 318 321 316 311 312 315 319 323 326 330 338 342 346 350 350 335 276 106 51 24 14 6 347 316 278 236 208 201 196 186 181 181 178 171 170 175 183 192
218 233 243 251 256 270 296 322 331 328 320 314 314 312 311 316 317 316 319 323 323 320 318 320 320 319 319 318 315 313 313 313 313 316 316 316 319 324 324 320 319 320 321 322 325 331 338 342 344 348 353 348 342 18 26 11 14 17 5 340 316 282 215 190 186 186 183 181 179 173 168 171 179 187
228 228 239 251 249 259 291 302 299 301 302 303 305 305 310 318 318 319 326 330 327 322 320 320 320 319 320 320 317 316 317 316 315 317 318 317 318 323 327 326 326 326 323 320 323 333 340 345 347 349 353 356 355 359 0 357 6 16 15 2 339 311 260 207 195 193 188 184 184 182 180 179 182 189
233 225 231 241 230 233 263 271 270 281 289 295 301 303 306 313 316 319 326 330 328 326 324 321 321 322 323 322 321 321 321 321 320 321 322 322 322 323 326 328 327 326 324 321 325 336 345 349 350 348 351 359 354 347 350 352 357 9 15 14 4 334 293 249 211 194 187 185 183 183 185 186 186 194
223 227 231 230 225 228 239 247 261 281 289 294 301 304 307 314 318 320 326 331 331 330 326 322 323 324 323 322 323 322 320 321 324 325 326 326 326 324 324 327 327 326 327 326 327 336 346 351 349 347 348 352 349 340 336 334 343 1 15 20 20 12 338 301 237 190 182 182 175 169 173 176 174 185
205 224 231 226 222 220 221 235 264 285 292 296 300 302 307 314 319 323 330 334 333 330 325 322 323 324 323 324 326 325 323 323 326 327 327 326 326 325 325 325 326 329 330 329 329 336 342 345 347 348 351 353 355 356 354 346 352 5 16 22 24 26 18 348 326 198 173 174 167 157 159 161 156 161
208 219 221 218 212 207 211 228 268 286 290 292 294 300 305 309 314 324 330 332 332 329 324 321 323 323 323 326 327 325 324 325 327 329 329 327 325 326 327 325 328 334 335 333 331 331 337 344 352 359 5 7 8 12 18 17 6 6 11 17 22 29 34 28 8 11 131 164 169 163 155 152 149 153
215 220 218 213 207 202 206 226 274 290 293 289 288 294 294 292 310 328 331 330 330 326 321 321 322 322 323 326 327 326 325 326 328 330 330 329 328 329 331 330 330 332 332 331 327 324 336 352 1 7 14 16 14 12 17 15 1 1 7 13 19 28 38 44 41 39 67 136 158 158 152 150 149 152
213 215 211 206 200 199 208 237 281 294 294 287 283 288 287 287 308 327 330 327 325 322 321 322 322 322 323 324 325 326 326 327 330 330 330 330 330 329 330 331 330 327 327 330 329 329 344 358 3 6 14 16 13 10 9 7 6 7 8 11 17 24 33 43 49 53 59 69 82 102 127 140 144 159
211 212 209 202 199 205 219 247 284 301 300 289 279 278 282 288 305 318 320 322 321 320 321 321 320 322 325 324 324 327 329 329 330 329 330 332 331 330 330 331 331 330 332 335 338 340 348 358 5 11 15 15 13 11 7 5 8 12 13 14 19 23 26 32 42 50 53 51 49 55 85 111 115 139
210 212 209 201 203 216 231 250 282 301 301 288 273 269 275 283 299 309 313 316 317 316 318 320 322 324 325 325 325 327 328 330 331 331 333 335 334 333 335 335 336 337 338 340 343 344 343 352 5 12 14 14 15 13 11 11 13 15 15 14 16 21 25 29 35 43 48 46 44 48 61 82 106 123